GW2620 Weather Reports


Display with metric or nautical units.
time (UTC)temp
F
wind
direction
speed
MPH
gust
MPH
rain 1hr
in
rain 24hr
in
rain mn
in
humidity
%
barometer
mb
20240522030006 59 76 0.0 1.0 0.00 0.00 0.00 96 1012.9
20240522025504 59 36 1.0 2.0 0.00 0.00 0.00 95 1012.9
20240522025003 59 76 0.0 2.0 0.00 0.00 0.00 95 1012.9
20240522024502 60 263 1.0 2.0 0.00 0.00 0.00 95 1013.0
20240522024001 60 269 0.0 2.0 0.00 0.00 0.00 94 1013.2
20240522023501 60 322 0.0 2.0 0.00 0.00 0.00 94 1013.1
20240522022959 61 235 0.0 1.0 0.00 0.00 0.00 94 1013.1
20240522022459 61 147 0.0 1.0 0.00 0.00 0.00 94 1013.3
20240522021957 61 49 0.0 3.0 0.00 0.00 0.00 93 1013.3
20240522021456 61 46 1.0 2.0 0.00 0.00 0.00 93 1013.3
20240522020956 62 44 0.0 1.0 0.00 0.00 0.00 92 1013.1
20240522020455 62 306 0.0 2.0 0.00 0.00 0.00 92 1013.2
20240522015954 62 72 0.0 2.0 0.00 0.00 0.00 92 1013.2
20240522015454 62 86 1.0 2.0 0.00 0.00 0.00 91 1013.5
20240522014952 63 19 1.0 2.0 0.00 0.00 0.00 91 1013.3
20240522014451 63 358 0.0 2.0 0.00 0.00 0.00 91 1013.2
20240522013950 63 46 0.0 2.0 0.00 0.00 0.00 91 1013.1
20240522013448 62 180 1.0 3.0 0.00 0.00 0.00 92 1013.0
20240522012945 62 153 0.0 2.0 0.00 0.00 0.00 92 1013.1
20240522012444 61 91 3.0 4.0 0.00 0.00 0.00 93 1012.9
20240522011943 61 100 3.0 5.0 0.00 0.00 0.00 92 1012.8
20240522011442 61 94 3.0 5.0 0.00 0.00 0.00 92 1013.0
20240522010941 61 81 2.0 3.0 0.00 0.00 0.00 92 1012.8
20240522010439 62 95 2.0 5.0 0.00 0.00 0.00 92 1012.7
20240522005938 61 89 0.0 3.0 0.00 0.00 0.00 92 1013.1
20240522005437 61 86 2.0 3.0 0.00 0.00 0.00 92 1013.2
20240522004936 61 104 2.0 3.0 0.00 0.00 0.00 92 1013.1
20240522004434 61 53 0.0 3.0 0.00 0.00 0.00 92 1013.1
20240522003934 61 60 2.0 3.0 0.00 0.00 0.00 91 1013.2
20240522003432 62 69 1.0 3.0 0.00 0.00 0.00 91 1013.2
20240522002932 62 80 2.0 2.0 0.00 0.00 0.00 91 1012.9
20240522002430 62 61 2.0 3.0 0.00 0.00 0.00 90 1013.0
20240522001929 62 69 1.0 2.0 0.00 0.00 0.00 90 1012.9
20240522001427 62 80 3.0 4.0 0.00 0.00 0.00 89 1012.9
20240522000925 62 91 2.0 6.0 0.00 0.00 0.00 89 1012.9
20240522000423 62 120 3.0 6.0 0.00 0.00 0.00 88 1013.0
20240521235922 62 125 2.0 4.0 0.00 0.00 0.00 88 1012.8
20240521235419 62 106 3.0 4.0 0.00 0.00 0.00 88 1012.7
20240521234919 62 122 2.0 3.0 0.00 0.00 0.00 88 1012.7
20240521234416 62 126 1.0 4.0 0.00 0.00 0.00 88 1012.2
20240521233915 63 106 2.0 4.0 0.00 0.00 0.00 87 1012.3
20240521233414 63 97 2.0 3.0 0.00 0.00 0.00 87 1012.0
20240521232912 63 78 2.0 6.0 0.00 0.00 0.00 87 1012.0
20240521232410 63 79 2.0 3.0 0.00 0.00 0.00 87 1012.0
20240521231910 64 97 3.0 5.0 0.00 0.00 0.00 86 1012.1
20240521231409 64 102 3.0 7.0 0.00 0.00 0.00 86 1012.3
20240521230908 64 97 3.0 3.0 0.00 0.00 0.00 85 1012.3
20240521230359 65 84 1.0 3.0 0.00 0.00 0.00 84 1012.3
20240521225858 66 97 1.0 2.0 0.00 0.00 0.00 83 1012.1
20240521225357 66 44 0.0 3.0 0.00 0.00 0.00 82 1012.1
20240521224857 66 96 1.0 3.0 0.00 0.00 0.00 82 1012.2
20240521224356 66 204 0.0 7.0 0.00 0.00 0.00 82 1011.9
20240521223856 66 103 2.0 4.0 0.00 0.00 0.00 81 1011.9
20240521223356 67 110 2.0 5.0 0.00 0.00 0.00 81 1012.0
20240521222854 67 88 2.0 4.0 0.00 0.00 0.00 81 1011.9
20240521222354 67 164 2.0 5.0 0.00 0.00 0.00 81 1011.9
20240521221853 67 178 2.0 4.0 0.00 0.00 0.00 79 1012.1
20240521221352 68 101 1.0 3.0 0.00 0.00 0.00 79 1012.0
20240521220851 67 182 2.0 6.0 0.00 0.00 0.00 80 1011.9
20240521220349 68 96 2.0 8.0 0.00 0.00 0.00 79 1012.0
20240521215847 68 309 0.0 4.0 0.00 0.00 0.00 79 1012.1
20240521215345 69 94 1.0 3.0 0.00 0.00 0.00 77 1012.1
20240521214843 68 145 2.0 6.0 0.00 0.00 0.00 77 1012.4
20240521214341 69 126 3.0 9.0 0.00 0.00 0.00 76 1012.4
20240521213840 69 111 2.0 7.0 0.00 0.00 0.00 76 1012.5
20240521213339 69 111 2.0 8.0 0.00 0.00 0.00 76 1012.4
20240521212840 69 136 3.0 7.0 0.00 0.00 0.00 74 1012.6
20240521212338 70 276 2.0 8.0 0.00 0.00 0.00 75 1012.6
20240521211837 71 110 3.0 6.0 0.00 0.00 0.00 73 1012.6
20240521211335 71 101 2.0 6.0 0.00 0.00 0.00 72 1012.4
20240521210834 71 187 2.0 7.0 0.00 0.00 0.00 71 1012.4
20240521210333 71 218 0.0 5.0 0.00 0.00 0.00 72 1012.1
20240521205833 72 167 2.0 6.0 0.00 0.00 0.00 70 1012.4
20240521205333 71 133 3.0 9.0 0.00 0.00 0.00 70 1012.2
20240521204831 73 142 3.0 4.0 0.00 0.00 0.00 68 1012.2
20240521204330 72 159 6.0 11.0 0.00 0.00 0.00 70 1012.0
20240521203828 72 102 3.0 9.0 0.00 0.00 0.00 70 1011.9
20240521203328 71 15 3.0 11.0 0.00 0.00 0.00 71 1012.0
20240521202826 71 123 6.0 12.0 0.00 0.00 0.00 70 1011.9
20240521202326 73 94 2.0 7.0 0.00 0.00 0.00 68 1012.1
20240521201824 73 54 0.0 8.0 0.00 0.00 0.00 70 1012.2
20240521201322 72 155 3.0 10.0 0.00 0.00 0.00 69 1012.1
20240521200820 73 135 3.0 12.0 0.00 0.00 0.00 68 1012.3
20240521200318 75 212 2.0 10.0 0.00 0.00 0.00 66 1012.3
20240521195818 76 120 10.0 15.0 0.00 0.00 0.00 63 1012.1
20240521195316 77 131 4.0 12.0 0.00 0.00 0.00 61 1012.1
20240521194816 76 213 2.0 10.0 0.00 0.00 0.00 64 1012.2
20240521194315 77 133 6.0 13.0 0.00 0.00 0.00 62 1012.2
20240521193813 78 170 3.0 9.0 0.00 0.00 0.00 61 1012.1
20240521193313 78 139 3.0 11.0 0.00 0.00 0.00 60 1012.2
20240521192811 78 134 2.0 6.0 0.00 0.00 0.00 62 1012.2
20240521192311 77 143 6.0 10.0 0.00 0.00 0.00 60 1012.2
20240521191811 77 0 0.0 8.0 0.00 0.00 0.00 62 1012.3
20240521191309 78 117 3.0 8.0 0.00 0.00 0.00 60 1012.2
20240521190809 77 219 3.0 9.0 0.00 0.00 0.00 62 1012.1
20240521190309 78 117 4.0 7.0 0.00 0.00 0.00 60 1012.3
20240521185807 78 180 3.0 7.0 0.00 0.00 0.00 59 1012.3
20240521185307 78 173 2.0 8.0 0.00 0.00 0.00 60 1012.4
20240521184805 78 235 4.0 9.0 0.00 0.00 0.00 59 1012.5
20240521184305 77 95 8.0 12.0 0.00 0.00 0.00 62 1012.4
20240521183803 78 195 5.0 10.0 0.00 0.00 0.00 61 1012.3
20240521183303 77 179 3.0 9.0 0.00 0.00 0.00 63 1012.5
20240521182801 78 126 8.0 12.0 0.00 0.00 0.00 61 1012.5
20240521182300 77 141 4.0 10.0 0.00 0.00 0.00 62 1012.4
20240521181759 77 111 4.0 11.0 0.00 0.00 0.00 63 1012.4
20240521181258 77 86 2.0 9.0 0.00 0.00 0.00 64 1012.3
20240521180755 77 180 3.0 6.0 0.00 0.00 0.00 63 1012.4
20240521180255 76 209 3.0 8.0 0.00 0.00 0.00 66 1012.6
20240521175753 77 84 4.0 13.0 0.00 0.00 0.00 65 1012.5
20240521175251 77 159 3.0 8.0 0.00 0.00 0.00 64 1012.7
20240521174750 76 145 7.0 12.0 0.00 0.00 0.00 64 1012.7
20240521174248 77 143 3.0 10.0 0.00 0.00 0.00 64 1012.5
20240521173747 77 124 4.0 9.0 0.00 0.00 0.00 64 1012.6
20240521173246 77 169 2.0 5.0 0.00 0.00 0.00 66 1012.6
20240521172744 76 125 3.0 10.0 0.00 0.00 0.00 65 1012.7
20240521172242 76 130 7.0 13.0 0.00 0.00 0.00 66 1012.7
20240521171741 76 140 4.0 8.0 0.00 0.00 0.00 66 1012.9
20240521171240 74 111 7.0 11.0 0.00 0.00 0.00 68 1013.0
20240521170740 74 100 2.0 8.0 0.00 0.00 0.00 68 1012.9
20240521170239 75 125 8.0 10.0 0.00 0.00 0.00 68 1013.0
20240521165736 75 121 6.0 8.0 0.00 0.00 0.00 67 1013.0
20240521165235 74 89 3.0 7.0 0.00 0.00 0.00 68 1012.9
20240521164734 73 77 3.0 5.0 0.00 0.00 0.00 70 1013.2
20240521164233 73 127 5.0 11.0 0.00 0.00 0.00 69 1013.1
20240521163731 74 92 4.0 7.0 0.00 0.00 0.00 68 1013.0
20240521163230 75 62 2.0 8.0 0.00 0.00 0.00 69 1013.1
20240521162727 75 104 4.0 13.0 0.00 0.00 0.00 67 1013.3
20240521162226 75 141 4.0 12.0 0.00 0.00 0.00 67 1013.2
20240521161726 75 40 3.0 6.0 0.00 0.00 0.00 66 1013.5
20240521161225 77 120 2.0 5.0 0.00 0.00 0.00 65 1013.3
20240521160723 77 111 1.0 5.0 0.00 0.00 0.00 65 1013.4
20240521160222 75 182 0.0 4.0 0.00 0.00 0.00 67 1013.5
20240521155721 75 239 3.0 5.0 0.00 0.00 0.00 66 1013.4
20240521155219 75 306 2.0 3.0 0.00 0.00 0.00 66 1013.7
20240521154718 75 175 1.0 4.0 0.00 0.00 0.00 67 1013.4
20240521154217 75 89 3.0 7.0 0.00 0.00 0.00 69 1013.7
20240521153716 72 302 1.0 3.0 0.00 0.00 0.00 71 1013.8
20240521153214 72 279 2.0 4.0 0.00 0.00 0.00 72 1013.8
20240521152713 71 259 4.0 6.0 0.00 0.00 0.00 71 1013.9
20240521152212 71 132 1.0 5.0 0.00 0.00 0.00 71 1014.1
20240521151710 70 269 2.0 5.0 0.00 0.00 0.00 74 1014.0
20240521151209 69 264 4.0 6.0 0.00 0.00 0.00 75 1014.1
20240521150707 69 217 3.0 6.0 0.00 0.00 0.00 75 1014.2
20240521150205 68 189 3.0 6.0 0.00 0.00 0.00 75 1014.1
20240521145703 69 229 1.0 4.0 0.00 0.00 0.00 78 1014.1
20240521145201 68 244 2.0 5.0 0.00 0.00 0.00 78 1014.0
20240521144701 69 241 0.0 5.0 0.00 0.00 0.00 77 1014.2
20240521144200 68 52 3.0 4.0 0.00 0.00 0.00 77 1014.2
20240521143658 68 111 2.0 7.0 0.00 0.00 0.00 75 1014.4
20240521143156 68 222 0.0 4.0 0.00 0.00 0.00 77 1014.5
20240521142655 66 183 1.0 5.0 0.00 0.00 0.00 78 1014.3
20240521142155 66 106 2.0 4.0 0.00 0.00 0.00 79 1014.3
20240521141653 65 75 1.0 4.0 0.00 0.00 0.00 80 1014.4
20240521141152 65 126 3.0 5.0 0.00 0.00 0.00 80 1014.4
20240521140650 64 159 2.0 4.0 0.00 0.00 0.00 82 1014.5
20240521140130 62 246 0.0 3.0 0.00 0.00 0.00 85 1014.7
20240521135630 62 348 1.0 3.0 0.00 0.00 0.00 87 1014.6
20240521135128 62 255 2.0 3.0 0.00 0.00 0.00 85 1014.7
20240521134626 63 35 0.0 5.0 0.00 0.00 0.00 85 1014.6
20240521134124 62 102 3.0 3.0 0.00 0.00 0.00 87 1014.5
20240521133623 62 324 2.0 4.0 0.00 0.00 0.00 85 1014.6
20240521133122 62 207 1.0 6.0 0.00 0.00 0.00 87 1014.8
20240521132620 62 74 2.0 4.0 0.00 0.00 0.00 85 1014.7
20240521132119 62 269 0.0 5.0 0.00 0.00 0.00 85 1014.7
20240521131618 61 233 2.0 3.0 0.00 0.00 0.00 88 1014.7
20240521131116 60 185 3.0 5.0 0.00 0.00 0.00 88 1014.6
20240521130615 60 170 3.0 3.0 0.00 0.00 0.00 89 1014.8
20240521130114 59 81 2.0 3.0 0.00 0.00 0.00 90 1014.6
20240521125612 59 347 0.0 4.0 0.00 0.00 0.00 91 1014.8
20240521125111 58 71 2.0 3.0 0.00 0.00 0.00 93 1014.8
20240521124610 57 227 1.0 5.0 0.00 0.00 0.00 94 1015.1
20240521124110 57 65 1.0 4.0 0.00 0.00 0.00 94 1014.8
20240521123608 57 105 3.0 4.0 0.00 0.00 0.00 94 1014.9
20240521123108 56 58 1.0 5.0 0.00 0.00 0.00 95 1014.6
20240521122605 56 76 2.0 4.0 0.00 0.00 0.00 96 1014.8
20240521122103 56 216 3.0 3.0 0.00 0.00 0.00 96 1014.8
20240521121601 56 56 0.0 3.0 0.00 0.00 0.00 98 1014.6
20240521121101 55 161 2.0 3.0 0.00 0.00 0.00 99 1014.8
20240521120558 54 141 1.0 2.0 0.00 0.00 0.00 99 1014.7
20240521120057 53 245 0.0 4.0 0.00 0.00 0.00 99 1014.8
20240521115556 54 248 2.0 2.0 0.00 0.00 0.00 99 1014.7
20240521115055 53 41 1.0 4.0 0.00 0.00 0.00 99 1014.8
20240521114554 54 265 2.0 3.0 0.00 0.00 0.00 99 1014.8
20240521114054 53 51 2.0 3.0 0.00 0.00 0.00 99 1014.7
20240521113551 53 134 2.0 4.0 0.00 0.00 0.00 99 1014.8
20240521113050 53 194 2.0 4.0 0.00 0.00 0.00 99 1014.4
20240521112550 53 133 2.0 6.0 0.00 0.00 0.00 99 1014.5
20240521112049 52 184 0.0 2.0 0.00 0.00 0.00 99 1014.7
20240521111548 52 233 1.0 3.0 0.00 0.00 0.00 99 1014.6
20240521111046 52 20 1.0 3.0 0.00 0.00 0.00 99 1014.6
20240521110545 52 97 2.0 3.0 0.00 0.00 0.00 99 1014.6
20240521110044 52 320 0.0 3.0 0.00 0.00 0.00 99 1014.5
20240521105542 52 252 1.0 3.0 0.00 0.00 0.00 99 1014.6
20240521105041 51 262 2.0 4.0 0.00 0.00 0.00 99 1014.7
20240521104538 51 236 2.0 2.0 0.00 0.00 0.00 99 1014.8
20240521104037 51 244 2.0 3.0 0.00 0.00 0.00 99 1014.7
20240521103534 51 297 2.0 3.0 0.00 0.00 0.00 99 1014.7
20240521103033 52 306 0.0 4.0 0.00 0.00 0.00 99 1014.5
20240521102532 51 147 0.0 4.0 0.00 0.00 0.00 99 1014.5
20240521102031 51 188 2.0 3.0 0.00 0.00 0.00 99 1014.4
20240521101530 51 112 2.0 4.0 0.00 0.00 0.00 99 1014.4
20240521101028 51 166 0.0 2.0 0.00 0.00 0.00 99 1014.2
20240521100527 51 89 0.0 3.0 0.00 0.00 0.00 99 1014.2
20240521100025 51 114 1.0 4.0 0.00 0.00 0.00 99 1014.5
20240521095524 51 217 1.0 5.0 0.00 0.00 0.00 99 1014.3
20240521095023 51 121 0.0 4.0 0.00 0.00 0.00 99 1014.4
20240521094521 51 211 1.0 5.0 0.00 0.00 0.00 99 1014.3
20240521094020 51 196 6.0 8.0 0.00 0.00 0.00 99 1014.2
20240521093519 51 120 1.0 3.0 0.00 0.00 0.00 99 1014.3
20240521093019 50 121 0.0 3.0 0.00 0.00 0.00 99 1014.2
20240521092518 50 176 2.0 3.0 0.00 0.00 0.00 99 1014.2
20240521092016 50 109 2.0 4.0 0.00 0.00 0.00 99 1014.3
20240521091515 50 148 4.0 8.0 0.00 0.00 0.00 99 1014.2
20240521091014 50 216 2.0 6.0 0.00 0.00 0.00 99 1014.3
20240521090513 50 212 1.0 5.0 0.00 0.00 0.00 99 1014.3
20240521090011 50 95 0.0 7.0 0.00 0.00 0.00 99 1014.4
20240521085510 50 184 3.0 3.0 0.00 0.00 0.00 99 1014.3
20240521085008 50 252 2.0 4.0 0.00 0.00 0.00 99 1014.1
20240521084506 50 327 0.0 3.0 0.00 0.00 0.00 99 1014.1
20240521084007 50 63 1.0 2.0 0.00 0.00 0.00 99 1014.1
20240521083506 50 147 0.0 2.0 0.00 0.00 0.00 99 1014.1
20240521083006 50 224 0.0 5.0 0.00 0.00 0.00 99 1014.0
20240521082504 50 155 4.0 5.0 0.00 0.00 0.00 99 1013.9
20240521082002 50 184 3.0 7.0 0.00 0.00 0.00 99 1013.9
20240521081500 50 175 2.0 3.0 0.00 0.00 0.00 99 1013.8
20240521080959 50 143 1.0 3.0 0.00 0.00 0.00 99 1014.0
20240521080458 50 128 1.0 4.0 0.00 0.00 0.00 99 1013.9
20240521075958 50 183 1.0 4.0 0.00 0.00 0.00 99 1014.0
20240521075456 50 116 2.0 5.0 0.00 0.00 0.00 99 1014.0
20240521074954 50 106 2.0 4.0 0.00 0.00 0.00 99 1014.0
20240521074453 50 167 3.0 6.0 0.00 0.00 0.00 99 1014.1
20240521073952 50 105 3.0 5.0 0.00 0.00 0.00 99 1014.3
20240521073452 50 147 0.0 5.0 0.00 0.00 0.00 99 1014.2
20240521072951 50 198 1.0 5.0 0.00 0.00 0.00 99 1014.5
20240521072450 50 114 3.0 5.0 0.00 0.00 0.00 99 1014.5
20240521071949 50 126 2.0 5.0 0.00 0.00 0.00 99 1014.3
20240521071448 50 91 2.0 5.0 0.00 0.00 0.00 99 1014.5
20240521070948 50 167 1.0 5.0 0.00 0.00 0.00 99 1014.6
20240521070446 50 44 0.0 3.0 0.00 0.00 0.00 99 1014.6
20240521065944 50 166 1.0 5.0 0.00 0.00 0.00 99 1014.4
20240521065443 50 168 2.0 3.0 0.00 0.00 0.00 99 1014.5
20240521064941 50 140 0.0 5.0 0.00 0.00 0.00 99 1014.4
20240521064439 50 81 3.0 6.0 0.00 0.00 0.00 99 1014.5
20240521063938 50 133 1.0 4.0 0.00 0.00 0.00 99 1014.5
20240521063437 51 176 2.0 4.0 0.00 0.00 0.00 99 1014.6
20240521062937 51 104 2.0 3.0 0.00 0.00 0.00 99 1014.7
20240521062437 51 60 1.0 6.0 0.00 0.00 0.00 99 1014.6
20240521061936 51 203 2.0 5.0 0.00 0.00 0.00 99 1014.4
20240521061435 51 128 3.0 5.0 0.00 0.00 0.00 99 1014.4
20240521060933 51 142 3.0 5.0 0.00 0.00 0.00 99 1014.7
20240521060431 51 145 5.0 6.0 0.00 0.00 0.00 99 1014.5
20240521055929 51 93 0.0 7.0 0.00 0.00 0.00 99 1014.7
20240521055428 51 202 1.0 5.0 0.00 0.00 0.00 99 1014.8
20240521054927 51 153 1.0 7.0 0.00 0.00 0.00 99 1014.8
20240521054426 51 166 3.0 4.0 0.00 0.00 0.00 99 1014.9
20240521053925 51 180 2.0 5.0 0.00 0.00 0.00 99 1014.9
20240521053425 51 104 2.0 6.0 0.00 0.00 0.00 99 1015.2
20240521052923 51 160 2.0 4.0 0.00 0.00 0.00 99 1015.3
20240521052421 51 161 2.0 5.0 0.00 0.00 0.00 99 1015.4
20240521051919 51 150 2.0 5.0 0.00 0.00 0.00 99 1015.5
20240521051418 51 187 0.0 6.0 0.00 0.00 0.00 99 1015.4
20240521050918 51 55 2.0 6.0 0.00 0.00 0.00 99 1015.4
20240521050416 51 173 1.0 4.0 0.00 0.00 0.00 99 1015.5
20240521045915 51 182 2.0 3.0 0.00 0.00 0.00 99 1015.5
20240521045413 51 186 2.0 3.0 0.00 0.00 0.00 99 1015.6
20240521044911 51 143 1.0 5.0 0.00 0.00 0.00 99 1015.7
20240521044410 51 185 1.0 3.0 0.00 0.00 0.00 99 1015.6
20240521043908 51 107 1.0 2.0 0.00 0.00 0.00 99 1015.4
20240521043408 51 155 0.0 5.0 0.00 0.00 0.00 99 1015.6
20240521042906 51 71 1.0 4.0 0.00 0.00 0.00 99 1015.5
20240521042406 51 173 1.0 4.0 0.00 0.00 0.00 99 1015.4
20240521041905 51 123 4.0 5.0 0.00 0.00 0.00 99 1015.3
20240521041403 51 217 3.0 4.0 0.00 0.00 0.00 99 1015.3
20240521040902 51 133 2.0 5.0 0.00 0.00 0.00 99 1015.4
20240521040359 52 207 2.0 6.0 0.00 0.00 0.00 99 1015.4
20240521035859 52 163 3.0 7.0 0.00 0.00 0.00 99 1015.6
20240521035358 52 158 0.0 6.0 0.00 0.00 0.00 99 1015.6
20240521034856 52 143 2.0 5.0 0.00 0.00 0.00 99 1015.5
20240521034355 52 159 4.0 7.0 0.00 0.00 0.00 99 1015.7
20240521033854 52 204 1.0 8.0 0.00 0.00 0.00 99 1015.6
20240521033353 52 139 2.0 4.0 0.00 0.00 0.00 99 1015.6
20240521032853 52 147 0.0 5.0 0.00 0.00 0.00 99 1015.9
20240521032352 52 216 2.0 5.0 0.00 0.00 0.00 99 1015.8
20240521031850 52 197 1.0 5.0 0.00 0.00 0.00 99 1015.9
20240521031348 52 239 0.0 5.0 0.00 0.00 0.00 99 1015.7
20240521030847 52 108 2.0 5.0 0.00 0.00 0.00 99 1015.8
20240521030346 52 124 2.0 3.0 0.00 0.00 0.00 99 1016.1